Date String (YYYY-MM-DD hh:mm:ss) UTC,Instrument flags,absolute air pressure of the measurement (hPa),sample flow rate (lpm),inlet stack bypass flow (lpm),air temperature of the measurement (°C),ambient temperature measured by the external sensor (°C),aerosol sample conditioner tube jacket temperature (°C),OPC LED temperature (°C),internal box temperature (°C),relative humidity of the measurement (%),span deviation,mass concentration of particles derived from Lorenz-Mie calculation of OPC scattering (μg/m³),mass concentration of particles derived from Lorenz-Mie calculation of OPC scattering (μg/m³),mass concentration of particles derived from Lorenz-Mie calculation of OPC scattering (μg/m³)
DateTimeUTC,F1_M11,P_M11,Q1_M11,Q2_M11,T1_M11,T2_M11,T3_M11,T4_M11,T5_M11,U1_M11,ZSPAN_M11,X2_M11,X0_M11,X1_M11
2023-06-18 21:00:00,SystemResetWarning,0823.8,4.99,000.00,029.1,025.0,000.0,037.6,030.5,22.6,0000.0,0004.60,0008.02,0004.06
2023-06-18 21:01:00,SystemResetWarning,0823.8,4.99,000.00,029.1,025.5,000.0,037.6,030.5,23.7,0000.0,0004.60,0007.94,0004.08
2023-06-18 21:02:00,SystemResetWarning,0823.8,5.00,000.00,029.1,026.0,000.0,037.6,030.6,23.7,0000.0,0004.60,0007.91,0004.08
2023-06-18 21:03:00,SystemResetWarning,0823.8,5.01,000.00,029.1,026.5,000.0,037.6,030.7,25.6,0000.0,0004.60,0007.75,0004.07
2023-06-18 21:04:00,SystemResetWarning,0823.8,4.99,000.00,029.1,026.8,000.0,037.6,030.7,25.8,0000.0,0004.58,0007.76,0004.06
2023-06-18 21:05:00,SystemResetWarning,0823.8,4.99,000.00,029.1,027.2,000.0,037.6,030.8,24.9,0000.0,0004.54,0007.81,0004.05
2023-06-18 21:06:00,SystemResetWarning,0823.8,5.00,000.00,029.2,027.4,000.0,037.7,030.8,24.6,0000.0,0004.49,0007.79,0004.05
2023-06-18 21:07:00,SystemResetWarning,0823.8,5.02,000.00,029.2,027.6,000.0,037.7,030.9,24.2,0000.0,0004.48,0007.69,0004.03
2023-06-18 21:08:00,SystemResetWarning,0823.8,5.00,000.00,029.3,027.8,000.0,037.7,031.0,25.0,0000.0,0004.43,0007.54,0004.03
2023-06-18 21:09:00,SystemResetWarning,0823.8,4.98,000.00,029.3,026.8,000.0,037.7,031.0,23.3,0000.0,0004.37,0007.32,0004.02
2023-06-18 21:10:00,SystemResetWarning,0823.8,5.01,000.00,029.3,024.8,000.0,037.6,030.8,23.3,0000.0,0004.35,0007.39,0004.02
2023-06-18 21:11:00,SystemResetWarning,0823.8,5.00,000.00,029.2,024.3,000.0,037.6,030.8,23.5,0000.0,0004.34,0007.78,0004.00
2023-06-18 21:12:00,SystemResetWarning,0823.8,5.02,000.00,029.2,024.6,000.0,037.6,030.5,23.3,0000.0,0004.36,0008.03,0004.00
2023-06-18 21:13:00,SystemResetWarning,0823.8,5.00,000.00,029.1,025.1,000.0,037.6,030.4,23.8,0000.0,0004.35,0008.05,0003.99
2023-06-18 21:14:00,SystemResetWarning,0823.8,5.00,000.00,029.1,025.6,000.0,037.6,030.4,25.0,0000.0,0004.37,0008.19,0004.00
2023-06-18 21:15:00,SystemResetWarning,0823.8,5.00,000.00,029.1,026.1,000.0,037.6,030.5,23.5,0000.0,0004.39,0008.57,0004.00
2023-06-18 21:16:00,SystemResetWarning,0823.8,4.99,000.00,029.1,026.5,000.0,037.6,030.6,22.0,0000.0,0004.39,0008.35,0004.00
2023-06-18 21:17:00,SystemResetWarning,0823.7,5.00,000.00,029.1,026.9,000.0,037.6,030.7,21.3,0000.0,0004.39,0008.68,0004.01
2023-06-18 21:18:00,SystemResetWarning,0823.7,5.00,000.00,029.1,027.2,000.0,037.6,030.7,22.5,0000.0,0004.40,0009.11,0004.01
2023-06-18 21:19:00,SystemResetWarning,0823.8,5.01,000.00,029.2,027.5,000.0,037.6,030.8,22.9,0000.0,0004.42,0009.49,0004.00
2023-06-18 21:20:00,SystemResetWarning,0823.8,5.00,000.00,029.2,027.7,000.0,037.7,030.9,22.5,0000.0,0004.42,0009.53,0003.99
2023-06-18 21:21:00,SystemResetWarning,0823.8,5.00,000.00,029.3,027.9,000.0,037.7,031.0,21.6,0000.0,0004.42,0009.45,0003.98
2023-06-18 21:22:00,SystemResetWarning,0823.8,4.99,000.00,029.3,027.5,000.0,037.7,031.0,22.7,0000.0,0004.43,0009.09,0003.98
2023-06-18 21:23:00,SystemResetWarning,0823.7,4.99,000.00,029.3,025.4,000.0,037.6,030.8,22.8,0000.0,0004.37,0008.77,0003.96
2023-06-18 21:24:00,SystemResetWarning,0823.7,5.01,000.00,029.2,024.3,000.0,037.6,030.7,22.9,0000.0,0004.36,0008.68,0003.95
2023-06-18 21:25:00,SystemResetWarning,0823.7,5.01,000.00,029.2,024.6,000.0,037.6,030.6,23.2,0000.0,0004.34,0008.69,0003.94
2023-06-18 21:26:00,SystemResetWarning,0823.7,5.00,000.00,029.1,025.0,000.0,037.6,030.4,23.5,0000.0,0004.32,0008.16,0003.93
2023-06-18 21:27:00,SystemResetWarning,0823.6,5.00,000.00,029.0,025.5,000.0,037.6,030.5,21.8,0000.0,0004.35,0008.69,0003.93
2023-06-18 21:28:00,SystemResetWarning,0823.7,4.99,000.00,029.0,026.0,000.0,037.6,030.5,21.6,0000.0,0004.36,0008.85,0003.92
2023-06-18 21:29:00,SystemResetWarning,0823.7,5.00,000.00,029.1,026.5,000.0,037.6,030.6,21.7,0000.0,0004.35,0009.00,0003.92
2023-06-18 21:30:00,SystemResetWarning,0823.7,5.01,000.00,029.1,026.8,000.0,037.6,030.7,22.0,0000.0,0004.34,0008.62,0003.93
2023-06-18 21:31:00,SystemResetWarning,0823.8,4.98,000.00,029.1,027.1,000.0,037.6,030.8,22.9,0000.0,0004.34,0008.58,0003.92
2023-06-18 21:32:00,SystemResetWarning,0823.8,5.00,000.00,029.2,027.4,000.0,037.6,030.8,22.9,0000.0,0004.34,0008.71,0003.91
2023-06-18 21:33:00,SystemResetWarning,0823.7,5.02,000.00,029.2,027.6,000.0,037.7,030.9,20.9,0000.0,0004.31,0008.67,0003.91
2023-06-18 21:34:00,SystemResetWarning,0823.8,4.99,000.00,029.3,027.8,000.0,037.7,031.0,22.9,0000.0,0004.32,0008.73,0003.91
2023-06-18 21:35:00,SystemResetWarning,0823.7,4.98,000.00,029.3,027.1,000.0,037.7,031.1,22.1,0000.0,0004.32,0008.72,0003.91
2023-06-18 21:36:00,SystemResetWarning,0823.7,5.01,000.00,029.3,025.0,000.0,037.6,030.9,20.0,0000.0,0004.32,0008.64,0003.92
2023-06-18 21:37:00,SystemResetWarning,0823.7,5.02,000.00,029.2,024.3,000.0,037.6,030.8,22.1,0000.0,0004.34,0008.69,0003.92
2023-06-18 21:38:00,SystemResetWarning,0823.6,5.00,000.00,029.2,024.6,000.0,037.6,030.6,23.2,0000.0,0004.29,0008.32,0003.90
2023-06-18 21:39:00,SystemResetWarning,0823.6,5.00,000.00,029.1,025.1,000.0,037.6,030.4,23.9,0000.0,0004.25,0007.69,0003.89
2023-06-18 21:40:00,SystemResetWarning,0823.7,5.00,000.00,029.0,025.6,000.0,037.6,030.5,22.1,0000.0,0004.23,0007.67,0003.89
2023-06-18 21:41:00,SystemResetWarning,0823.7,5.00,000.00,029.0,026.1,000.0,037.6,030.6,21.1,0000.0,0004.22,0007.86,0003.89
2023-06-18 21:42:00,SystemResetWarning,0823.7,4.99,000.00,029.1,026.5,000.0,037.6,030.7,22.1,0000.0,0004.25,0007.98,0003.89
2023-06-18 21:43:00,SystemResetWarning,0823.7,4.98,000.00,029.1,026.9,000.0,037.6,030.7,23.2,0000.0,0004.23,0007.82,0003.89
2023-06-18 21:44:00,SystemResetWarning,0823.7,5.01,000.00,029.1,027.2,000.0,037.6,030.8,23.9,0000.0,0004.23,0007.79,0003.90
2023-06-18 21:45:00,SystemResetWarning,0823.7,5.01,000.00,029.2,027.5,000.0,037.6,030.9,25.1,0000.0,0004.24,0007.83,0003.90
2023-06-18 21:46:00,SystemResetWarning,0823.7,5.00,000.00,029.2,027.7,000.0,037.7,030.9,25.0,0000.0,0004.28,0008.00,0003.90
2023-06-18 21:47:00,SystemResetWarning,0823.7,5.00,000.00,029.3,027.9,000.0,037.7,031.0,25.0,0000.0,0004.32,0008.17,0003.90
2023-06-18 21:48:00,SystemResetWarning,0823.7,4.99,000.00,029.3,027.7,000.0,037.7,031.1,24.7,0000.0,0004.31,0008.27,0003.89
2023-06-18 21:49:00,SystemResetWarning,0823.7,4.99,000.00,029.3,025.8,000.0,037.7,030.9,21.9,0000.0,0004.33,0008.33,0003.90
2023-06-18 21:50:00,SystemResetWarning,0823.6,5.01,000.00,029.3,024.4,000.0,037.6,030.8,23.1,0000.0,0004.36,0008.45,0003.92
2023-06-18 21:51:00,SystemResetWarning,0823.7,5.01,000.00,029.2,024.6,000.0,037.6,030.7,22.1,0000.0,0004.40,0008.11,0003.92
2023-06-18 21:52:00,SystemResetWarning,0823.6,5.01,000.00,029.1,025.0,000.0,037.6,030.5,22.1,0000.0,0004.39,0007.76,0003.92
2023-06-18 21:53:00,SystemResetWarning,0823.6,5.00,000.00,029.1,025.5,000.0,037.6,030.5,23.1,0000.0,0004.38,0007.75,0003.93
2023-06-18 21:54:00,SystemResetWarning,0823.6,5.00,000.00,029.1,026.0,000.0,037.6,030.6,22.8,0000.0,0004.38,0007.75,0003.94
2023-06-18 21:55:00,SystemResetWarning,0823.6,5.00,000.00,029.1,026.5,000.0,037.6,030.7,20.8,0000.0,0004.36,0007.67,0003.93
2023-06-18 21:56:00,SystemResetWarning,0823.7,5.00,000.00,029.1,026.8,000.0,037.6,030.8,23.1,0000.0,0004.34,0007.58,0003.92
2023-06-18 21:57:00,SystemResetWarning,0823.7,5.00,000.00,029.2,027.1,000.0,037.6,030.8,22.5,0000.0,0004.29,0007.37,0003.91
2023-06-18 21:58:00,SystemResetWarning,0823.7,5.00,000.00,029.2,027.4,000.0,037.7,030.9,20.4,0000.0,0004.27,0007.40,0003.90
2023-06-18 21:59:00,SystemResetWarning,0823.7,5.00,000.00,029.3,027.7,000.0,037.7,030.9,20.0,0000.0,0004.30,0007.44,0003.91
